RH
9 8 7 7 8 7 5 6 8 13 15 31 55 47 57 52 70 50 51 44 33 24 19 22 17 9 8 26 38 67 48 61 53 72 98 72 50 50 42 43 43 44 42 36 41
9 9 8 9 9 8 6 7 10 16 16 28 46 48 59 76 72 72 72 56 42 33 23 21 24 12 8 12 33 44 55 56 54 66 95 86 59 52 51 47 49 51 46 41 44
9 10 10 11 11 9 7 9 11 19 17 33 45 69 80 77 69 76 69 58 43 36 26 22 24 16 10 8 20 34 55 51 64 68 96 96 75 55 59 50 53 56 49 46 46
9 11 12 14 14 11 8 10 12 19 21 38 52 63 70 67 94 84 62 52 45 32 24 20 20 18 12 8 8 27 36 52 69 75 96 90 92 60 60 60 61 57 61 53 50
11 13 15 16 18 14 10 10 13 17 25 27 49 76 86 90 94 72 58 52 47 32 24 19 16 15 13 11 8 12 31 44 49 81 97 97 74 82 64 64 67 66 69 63 54
16 15 15 20 23 21 13 11 12 17 23 26 36 61 79 79 76 74 66 63 51 38 26 20 16 13 12 12 9 7 15 39 48 65 96 86 96 74 86 70 74 87 81 80 64
26 20 16 22 26 27 23 13 13 17 19 30 42 58 67 80 71 66 69 58 50 48 35 27 20 16 12 11 12 9 9 23 41 54 88 98 83 96 94 79 72 81 90 89 64
37 31 22 21 27 29 29 20 14 15 19 25 35 50 61 62 64 59 56 47 40 36 35 33 25 19 14 12 11 16 10 10 32 46 50 91 85 87 97 96 78 74 91 90 91
42 46 40 28 24 30 30 30 16 15 20 23 30 38 47 65 64 59 51 43 35 39 48 42 25 22 18 13 11 16 14 9 14 36 43 48 86 90 95 96 98 85 95 90 94
44 46 52 50 34 29 31 33 27 18 20 26 24 37 44 54 68 70 61 51 44 41 73 61 52 34 24 18 14 12 17 14 10 23 38 42 51 96 94 93 97 98 91 93 90
38 46 47 55 55 42 32 32 35 27 17 26 28 29 39 39 49 58 65 54 49 49 65 77 71 66 51 29 22 15 16 22 12 11 32 43 48 77 94 92 94 94 90 78 96
30 35 43 46 54 59 48 36 32 38 28 22 31 33 37 41 36 51 50 60 52 54 72 71 85 67 56 66 42 24 15 20 18 11 15 39 45 60 85 96 97 98 98 90 77
26 30 37 40 45 51 61 52 38 35 38 32 26 38 40 39 41 43 38 45 54 62 52 63 94 88 66 71 64 34 18 20 21 14 11 25 47 68 79 79 87 95 89 88 82
27 29 34 38 41 46 50 65 54 42 35 42 37 30 45 44 42 46 38 36 44 57 59 61 69 54 49 45 36 32 27 25 23 16 12 15 36 62 74 66 64 82 98 98 85
40 41 34 38 41 44 45 52 64 54 47 41 44 43 30 41 56 41 47 44 39 40 42 53 58 54 46 39 32 30 28 26 23 19 14 12 22 45 60 67 71 69 59 84 90
50 50 53 54 55 52 47 52 60 66 62 52 50 48 48 32 42 60 53 48 46 45 45 45 48 51 48 41 40 31 24 24 24 21 15 11 12 25 40 45 78 65 59 57 58
40 41 45 43 50 59 62 62 58 67 80 80 52 52 48 52 38 40 56 64 59 54 47 47 49 48 42 39 36 32 28 26 30 23 14 12 10 10 24 38 51 58 50 49 47
36 29 38 38 41 45 47 50 63 64 76 91 93 66 54 51 51 53 46 46 52 68 62 57 51 47 50 43 53 36 32 26 29 21 16 12 10 8 10 19 29 26 23 25 26
29 29 26 30 35 36 42 40 52 57 71 78 87 99 72 54 55 51 58 58 41 42 49 63 60 61 68 71 60 61 50 46 34 23 21 16 10 9 8 9 11 15 18 20 23
27 26 26 22 28 28 30 38 34 39 55 71 82 83 100 97 60 56 54 52 58 56 51 48 55 54 48 59 65 61 57 52 43 34 21 16 12 9 8 9 8 9 12 15 19
26 24 26 21 27 26 27 37 44 39 41 70 73 87 83 98 100 93 59 57 57 52 56 54 53 49 56 41 41 47 52 49 58 35 33 18 13 11 9 8 8 8 9 11 16
26 25 23 20 23 24 27 39 62 53 35 57 87 63 90 86 90 99 100 97 54 62 58 53 56 51 57 62 46 34 40 46 44 48 49 48 18 13 10 8 8 8 8 9 11
28 28 31 26 23 22 27 38 43 43 60 47 62 91 80 88 94 92 92 99 99 83 56 57 56 54 56 57 52 55 39 37 43 45 45 51 36 20 13 9 8 8 9 9 10
32 27 29 34 39 34 25 32 37 38 44 63 68 61 88 81 94 98 98 99 98 98 98 85 54 53 52 50 53 50 58 50 32 34 34 26 48 48 32 16 12 10 10 12 16
35 27 31 31 33 37 36 30 31 32 40 49 59 61 55 78 88 95 98 96 99 98 96 98 97 78 47 48 46 48 53 47 43 43 23 31 30 45 47 45 35 29 30 28 28
38 29 37 42 40 35 32 30 28 30 31 45 44 34 55 60 88 85 92 94 98 93 92 94 97 98 100 71 45 44 45 42 45 40 32 33 25 32 25 24 25 24 22 21 20
32 33 46 44 41 35 32 34 34 28 28 42 40 34 37 45 71 94 83 84 94 92 84 86 77 94 100 89 82 66 47 37 39 35 35 30 36 37 23 20 22 22 23 23 24
Wind_Speed
27 32 37 42 46 48 51 53 53 50 43 41 34 23 21 22 25 27 32 35 41 47 50 53 56 60 61 61 61 60 59 55 48 43 39 40 36 37 30 29 28 28 28 27 25
29 32 37 41 45 48 48 51 52 48 41 38 24 14 15 12 17 22 25 25 32 38 47 51 53 54 59 63 64 62 59 55 50 46 45 43 41 39 34 30 30 29 29 27 26
29 32 35 39 44 46 45 49 51 44 37 33 23 18 9 6 12 17 20 19 26 32 39 47 48 50 57 61 64 63 59 56 57 51 46 45 46 41 38 33 32 31 30 28 27
29 31 34 38 42 44 42 45 48 42 36 30 24 17 9 1 4 11 16 17 21 30 33 39 44 46 49 60 63 64 60 59 60 56 51 46 42 41 42 37 32 29 30 29 29
27 30 33 36 41 44 42 43 46 42 37 27 23 16 6 5 6 9 11 12 16 24 29 33 36 40 46 54 61 63 61 61 59 60 51 48 50 44 41 43 38 34 28 29 29
27 29 32 35 40 44 43 42 45 42 37 31 21 17 6 2 5 6 8 10 13 19 26 30 29 31 37 47 59 63 64 62 61 62 60 56 50 45 41 41 39 42 34 29 29
28 29 31 34 38 42 46 42 43 42 37 31 24 19 11 4 3 7 7 8 10 14 21 27 32 34 33 36 51 60 62 64 63 61 64 56 59 46 44 37 39 39 33 36 31
29 30 30 33 36 40 44 46 42 43 37 32 26 20 16 8 4 4 6 4 6 10 16 24 31 35 37 37 42 57 58 62 63 64 64 64 59 55 43 44 40 39 41 38 32
30 31 32 33 34 37 40 45 44 44 38 31 27 22 19 14 8 2 5 3 5 7 13 19 27 32 37 41 40 50 56 59 62 64 65 65 58 60 52 45 46 44 43 41 38
30 31 33 34 35 35 37 40 43 42 39 32 27 23 19 17 12 6 4 4 3 6 7 13 20 27 33 39 44 44 50 55 59 63 64 64 61 56 59 48 45 46 47 48 44
30 32 34 34 34 35 35 36 41 41 40 34 28 25 20 15 13 10 3 5 4 4 6 5 14 21 28 34 42 49 47 54 56 60 63 63 61 58 55 55 48 50 46 49 50
29 31 33 35 36 35 34 35 35 39 42 39 34 29 23 17 14 11 7 1 3 5 6 5 10 18 27 32 39 45 47 51 53 56 60 60 61 56 60 56 55 52 42 41 42
28 29 31 34 36 38 37 35 33 36 39 43 37 34 28 20 16 12 9 6 2 2 3 3 3 8 18 25 32 40 44 48 51 53 58 59 63 62 60 60 59 51 52 49 43
26 28 30 32 35 37 38 38 35 35 36 40 41 35 32 25 17 14 11 9 5 2 1 2 4 4 9 16 23 30 35 42 46 49 55 58 61 62 65 61 57 52 42 46 43
26 29 29 31 32 35 38 39 38 34 35 35 36 38 32 29 23 16 13 11 7 6 3 1 2 3 4 9 18 23 26 33 38 42 49 53 58 59 60 56 63 52 42 42 40
25 28 30 31 31 32 34 38 38 35 31 30 31 32 34 31 27 23 16 12 10 6 5 3 1 2 3 6 10 18 24 28 32 38 44 48 55 58 57 53 51 45 42 39 40
22 27 29 32 33 34 36 36 38 39 35 32 29 28 29 29 29 26 23 18 12 7 5 3 2 2 4 6 9 14 20 26 30 35 40 44 50 52 53 52 47 45 43 42 40
21 24 28 30 32 34 36 38 37 38 36 33 28 27 24 24 26 26 25 20 17 13 8 5 2 3 6 7 9 13 19 26 31 32 31 37 45 45 47 50 47 43 42 41 37
20 23 25 28 30 32 35 36 38 40 38 34 34 27 21 22 22 21 21 22 19 16 14 11 8 5 2 6 10 12 17 24 28 33 34 35 36 39 40 42 42 42 40 37 36
22 22 23 25 28 30 32 34 35 36 37 39 35 33 29 22 19 17 17 16 17 17 15 13 8 3 6 2 5 10 13 21 22 27 33 34 34 34 33 35 34 36 37 37 36
22 22 23 23 26 28 30 32 34 35 34 37 38 35 30 27 23 19 16 16 14 13 14 13 11 7 1 1 4 9 13 16 19 22 23 29 33 32 31 33 34 36 36 37 38
23 22 22 23 25 26 27 30 34 33 33 34 38 33 32 30 27 24 20 16 14 12 11 11 12 9 8 8 7 6 12 16 18 20 19 19 24 26 31 33 33 34 34 36 37
25 25 24 23 26 26 27 28 31 31 33 32 35 33 31 30 28 30 26 20 17 12 11 10 8 7 8 7 7 6 8 11 16 21 23 23 22 24 26 30 32 33 35 36 38
32 30 28 27 27 28 28 30 32 31 33 36 35 32 33 28 26 27 24 24 22 17 12 9 11 9 8 7 6 7 10 13 12 16 19 21 22 23 25 29 32 35 36 37 38
36 35 31 31 30 30 30 33 32 33 32 36 35 36 35 35 26 25 21 20 20 20 19 13 9 11 12 10 7 8 7 11 12 10 10 13 23 25 28 27 28 30 31 34 36
41 39 38 35 35 34 33 32 33 34 35 36 37 39 38 39 34 27 21 22 18 16 16 16 14 8 10 13 9 6 10 10 7 9 10 15 16 19 24 27 28 30 32 34 36
43 44 44 40 39 39 37 38 36 38 35 37 39 39 41 40 38 36 29 23 21 19 15 14 15 12 6 12 11 6 9 8 8 9 11 12 15 24 24 24 26 30 31 33 34
Wind_Direction
338 343 346 351 355 356 355 354 350 344 338 333 314 300 288 262 242 232 233 232 228 226 225 224 221 218 217 213 216 217 216 211 207 207 212 217 214 217 206 210 202 203 200 194 189
342 347 351 355 360 0 359 359 356 348 346 348 348 326 300 260 236 226 224 232 228 226 225 223 222 218 216 214 214 215 215 211 208 209 215 213 213 216 208 206 206 207 202 197 193
345 350 355 2 4 4 1 3 1 353 352 353 356 351 332 250 231 220 222 228 227 224 220 219 219 217 214 214 214 216 215 213 208 210 216 219 213 212 213 205 208 208 207 202 201
347 353 359 6 9 7 2 6 4 359 359 355 357 11 21 74 199 215 221 232 223 218 220 216 215 214 214 213 214 216 214 214 211 211 216 221 217 206 215 211 212 208 214 210 208
351 357 3 8 12 12 6 7 6 4 3 359 0 4 39 134 193 200 211 216 219 215 217 216 211 211 213 212 213 214 214 214 212 211 217 216 219 208 213 215 214 211 214 219 213
357 2 6 8 14 15 11 8 9 8 7 5 5 358 355 219 188 190 210 215 217 214 217 219 213 212 214 214 213 213 214 215 214 212 216 219 216 209 210 216 219 215 211 217 222
6 7 8 9 12 14 14 11 12 11 12 7 14 18 5 317 241 204 200 210 214 215 217 215 216 216 215 213 215 216 216 215 213 213 218 219 225 210 212 207 211 217 223 210 222
12 11 11 11 11 13 12 14 13 15 14 9 12 21 23 16 337 244 217 225 235 224 217 216 216 215 216 216 215 218 217 215 215 212 216 219 221 223 211 211 210 215 220 226 212
17 16 17 15 13 13 13 15 16 17 14 11 9 14 22 23 11 292 218 246 262 249 235 225 218 217 217 218 218 221 218 218 215 215 216 219 219 220 219 211 215 215 217 215 206
18 17 19 19 16 15 14 16 19 19 18 13 13 14 17 22 22 11 238 239 256 266 267 238 227 221 220 220 219 222 219 218 217 216 218 220 220 225 217 217 215 219 221 221 211
18 16 18 20 19 16 17 18 20 23 24 22 18 18 16 21 20 24 357 252 244 268 276 248 228 225 223 221 216 218 216 217 217 216 218 220 223 221 224 217 217 219 223 228 220
16 15 15 19 22 20 18 19 19 24 28 28 24 25 20 19 31 32 29 315 251 240 257 265 243 234 234 223 217 216 217 217 216 217 218 221 221 225 226 224 215 217 216 230 237
13 13 16 17 19 22 20 19 21 23 28 32 31 27 25 25 29 38 42 48 28 295 241 261 226 208 219 215 216 215 216 217 217 217 218 219 221 222 224 231 230 221 221 225 227
9 10 12 15 15 18 22 20 18 22 27 32 34 32 27 27 30 32 44 45 69 71 271 205 187 197 207 204 208 211 214 220 219 218 220 219 221 223 228 229 234 229 219 230 238
5 4 7 13 17 16 17 20 19 19 25 27 30 34 33 28 28 31 38 40 47 72 74 119 167 156 190 207 200 204 209 218 221 221 221 221 222 221 228 229 232 233 235 237 242
8 10 8 10 10 11 12 13 18 23 27 25 26 30 32 34 32 29 32 36 34 49 81 81 79 192 192 208 214 216 208 216 221 222 222 223 225 221 228 231 229 232 238 239 243
1 5 8 9 14 13 14 12 14 23 23 21 21 26 28 30 36 35 33 35 38 35 39 78 120 198 217 215 213 217 221 215 217 221 222 222 226 223 226 233 234 236 239 239 241
345 354 359 5 9 8 12 13 18 20 24 22 19 18 22 24 29 35 34 28 30 35 50 17 306 265 254 239 221 217 214 221 221 225 222 227 227 223 225 229 233 235 237 241 242
334 340 350 351 358 3 5 8 14 15 16 21 21 19 16 20 25 27 29 32 31 27 25 29 39 29 296 253 236 222 215 219 225 227 224 225 227 227 222 229 231 235 237 238 238
321 329 339 344 349 354 359 1 4 9 12 10 14 17 16 13 16 19 22 23 29 28 25 11 357 37 45 342 248 240 222 219 221 229 232 225 225 229 225 228 230 231 234 237 241
313 321 327 333 340 345 350 353 355 360 4 7 7 8 11 16 10 7 14 11 12 19 19 16 3 332 284 145 270 244 231 225 219 224 227 226 224 226 226 226 229 230 230 234 237
303 309 316 323 327 332 339 343 346 351 352 359 1 1 6 6 10 15 358 2 0 2 1 9 13 3 334 295 224 229 235 225 218 217 217 220 220 224 224 225 231 234 235 236 237
296 302 306 313 315 320 326 331 336 342 345 345 352 357 356 358 4 359 3 6 346 353 349 348 349 350 336 336 298 240 219 244 227 215 212 213 205 214 222 224 228 233 235 237 240
292 293 296 301 306 312 315 321 326 330 336 340 340 345 351 355 350 357 351 349 354 344 339 342 325 326 312 318 315 295 251 219 230 230 224 221 204 211 219 222 223 229 236 239 242
289 292 292 296 299 303 309 314 317 319 325 330 334 335 333 343 345 344 342 342 338 339 339 334 318 324 312 304 299 286 278 272 261 235 231 209 230 225 230 230 231 233 237 241 244
285 288 289 291 296 298 303 306 309 311 316 321 322 327 325 330 336 331 338 330 327 326 329 331 325 326 302 310 301 272 273 279 284 263 242 222 219 234 239 243 245 248 249 251 254
281 283 285 289 291 294 297 298 304 304 306 310 315 319 319 321 326 329 323 324 320 317 317 311 311 315 285 301 314 296 267 268 258 257 257 235 225 233 240 240 242 246 249 253 257